Tracking 25370 objects as of 25-Jan-2022
HD Live streaming from Space Station
objects crossing your sky now

STARLINK-2164

Track STARLINK-2164 now!
10-day predictions
STARLINK-2164 is classified as:


NORAD ID: 47750
Int'l Code: 2021-017AE
Perigee: 553.4 km
Apogee: 555.3 km
Inclination: 53.1 °
Period: 95.6 minutes
Semi major axis: 6925 km
RCS: Unknown
Launch date: March 4, 2021
Source: United States (US)
Launch site: AIR FORCE EASTERN TEST RANGE (AFETR)
aabbcc
Your satellite tracking list
Your tracking list is empty




NASA's NSSDC Master Catalog

Two Line Element Set (TLE):
1 47750U 21017AE  22024.77325341  .00002178  00000-0  16508-3 0  9997
2 47750  53.0559 117.4638 0001345  69.5436 290.5697 15.06391926 51048
Source of the keplerian elements: AFSPC